LOWIEDJA

Guest
Details From LOWI - Innsbruck Kranebitten
To EDJA - MEMMINGEN ALLGAU
Flight Number -
Tags generated
Created
Modified
Stats Distance 63 nm / 117 km
Max Altitude 7,100 ft / 2,164 m
Waypoints 3
Social Downloads 8
Likes 0
Share VATSIM

Download

Looking for another format? Having issues loading an existing format? Contact us
Advertisement - Login to hide

Notes

Basic altitude profile: - Ascent Rate: 2500ft/min - Ascent Speed: 250kts - Cruise Altitude: 35000ft - Cruise Speed: 420kts - Descent Rate: 1500ft/min - Descent Speed: 250kts

Route

LOWI TEGAD EDJA

ID Type Via Altitude Latitude Longitude Leg Dist Tot Dist Heading (true) Name
O LOWI APT - 0 ft / 0 m 47.26023˚ 11.34397˚ - 0 nm - Innsbruck Kranebitten
TEGAD FIX - 7,100 ft / 2,164 m 47.66528˚ 10.91806˚ 29 nm 29 nm 325° / 324° -
O EDJA APT - 0 ft / 0 m 47.98876˚ 10.23950˚ 33 nm 63 nm 306° / 305° MEMMINGEN ALLGAU

Altitude Profile

Advertisement - Login to hide

LOWI

Details ICAO LOWI (INN)
Name Innsbruck Kranebitten
Region Austria
Timezone Europe/Vienna (UTC+1.0)
Stats Elevation 1,906 ft / 581 m (AMSL)
Location 47.260226° 11.343967°
Runways 1
Magnetic Variation 3.018° E

METAR

LOWI 111450Z 13016G27KT 080V160 9999 FEW060 SCT075 BKN100 12/03 Q0987 R08/19//95 NOSIG

Decode

TAF

TAF TAF AMD LOWI 111439Z 1114/1212 10012G25KT 9999 FEW060 SCT070 BKN110 TX12/1114Z TN04/1208Z TEMPO 1114/1120 13017G35KT PROB30 TEMPO 1114/1119 12025G45KT BECMG 1120/1122 27007KT -RA SCT040 BKN060 TEMPO 1122/1208 30015G25KT RA SCT010 BKN030 PROB40 TEMPO 1204/1207 2500 SNRA SCT005 BKN013

Decode

Departure Runways

ID Width Length Bearing (true) Bearing (mag) Surface Threshold Offset Overrun Length
08 148 ft / 45 m 6,545 ft / 1,995 m 81.02° 78.00° Asphalt 338 ft / 103 m 0 ft / 0 m
26 148 ft / 45 m 6,545 ft / 1,995 m 261.04° 258.02° Asphalt 0 ft / 0 m 0 ft / 0 m

EDJA

Details ICAO EDJA (FMM)
Name MEMMINGEN ALLGAU
Region Germany - Civil
Timezone Europe/Berlin (UTC+1.0)
Stats Elevation 2,077 ft / 633 m (AMSL)
Location 47.988757° 10.239502°
Runways 1
Magnetic Variation 2.771° E

METAR

EDJA 111450Z 19009KT CAVOK 07/02 Q0982

Decode

TAF

Not found

Destination Runways

ID Width Length Bearing (true) Bearing (mag) Surface Threshold Offset Overrun Length
06 98 ft / 30 m 9,762 ft / 2,975 m 57.91° 55.14° Asphalt 953 ft / 290 m 0 ft / 0 m
24 98 ft / 30 m 9,762 ft / 2,975 m 237.94° 235.17° Asphalt 953 ft / 290 m 0 ft / 0 m

Approach Navaids

Runway Type Ident Frequency Range Bearing (true) Bearing (mag) Slope Elevation
24 Localiser IAMW 110.10 MHz 18 nm / 33 km 239.25° 236.48° - 0 ft / 0 m (AMSL)
24 Glidescope IAMW 110.10 MHz 18 nm / 33 km 237.44° 234.67° 3.00° 2,050 ft / 625 m (AMSL)
24 DME IAMW 110.10 MHz 25 nm / 46 km - - - 2,064 ft / 629 m (AMSL)

Popular Alternatives